Voltar ao catálogo

EUTE 25A

HB 5

AtivoComunicaçõesGEO
NORAD 25495·PAYLOAD·🇪🇺 EU

Lançado Oct 9, 1998 de Cape Canaveral Space Force Station

Loading…

TLE

AtualizadoSource: Space-Track

Época: Sep 14, 2026, 06:43 UTC

1 25495U 98057A   26257.28053766 -.00000168  00000-0  00000-0 0  9999
2 25495  10.7160  49.8683 0013235  60.6906 296.1032  0.98456124101331

Acompanhe EUTE 25A em tempo real com AllMySat

Download on the App Store